Header for Extended Forecast Station List Page

Search by: ID | Name | Date | Parm | Value | Avg | % Avg
Sort by: ID | Name | Date | Parm | Value | Avg | % Avg

Enter search or view all records.

Click on id for station plot
#IDNameDateParmValueAvg% Avg
0BULO3BULLY CREEK-BULLY CREEK DAM02-20-2024INFLOW (KAF)344767
1MYKO3MCKAY CREEK-NEAR PILOT ROCK02-20-2024DISCHARGE (KAF)343888
2LWRI1LITTLE WOOD-LITTLE WOOD DAM02-20-2024INFLOW (KAF)5951115
3DLGM8CLARK FORK-AT DEER LODGE02-20-2024DISCHARGE (KAF)687590
4BERO3MALHEUR-AGENCY VALLEY DAM02-20-2024INFLOW (KAF)7852150
5RIDI1WILLOW CREEK-RIRIE DAM02-20-2024INFLOW (KAF)7939201
6DEDI1DEADWOOD-NEAR LOWMAN02-20-2024INFLOW (KAF)8910188
7GIBO3UMATILLA-NEAR GIBBON02-20-2024DISCHARGE (KAF)9188104
8EASW1YAKIMA-AT EASTON02-20-2024DISCHARGE (KAF)939994
9KADW1KACHESS-KACHESS DAM02-20-2024INFLOW (KAF)969998
10MACI1BIG LOST-MACKAY RESERVOIR NEAR MACKAY02-20-2024INFLOW (KAF)10066151
11BUDW1BUMPING-BUMPING LAKE DAM02-20-2024INFLOW (KAF)10294109
12KEDW1YAKIMA-KEECHELUS LAKE02-20-2024INFLOW (KAF)110106104
13HWRI1BIG LOST-AT HOWELL RANCH NEAR CHILLY02-20-2024DISCHARGE (KAF)11591127
14WRMO3MALHEUR-WARM SPRINGS DAM02-20-2024INFLOW (KAF)12779161
15ARDW1ENTIAT-NEAR ARDENVOIR02-20-2024DISCHARGE (KAF)13314294
16PIHI1PORTNEUF-AT POCATELLO02-20-2024DISCHARGE (KAF)13373181
17SATI1ST MARIES-NEAR SANTA02-20-2024DISCHARGE (KAF)145137106
18TNAW1TEANAWAY-BELOW FORKS02-20-2024DISCHARGE (KAF)146134109
19RCCM8ROCK CREEK-NEAR CLINTON02-20-2024DISCHARGE (KAF)14719376
20RILW1TIETON-RIMROCK LAKE NEAR RIMROCK02-20-2024INFLOW (KAF)15015597
21IPDI1HENRYS FORK-ISLAND PARK DAM02-20-2024INFLOW (KAF)15616396
22HALI1BIG WOOD-AT HAILEY02-20-2024DISCHARGE (KAF)167153109
23UMAO3UMATILLA-NEAR UMATILLA02-20-2024DISCHARGE (KAF)170168101
24TCHW1WALLA WALLA-NEAR TOUCHET02-20-2024DISCHARGE (KAF)17320485
25DRMM8CLARK FORK-NR DRUMMOND02-20-2024DISCHARGE (KAF)18721488
26MAGI1BIG WOOD-MAGIC DAM02-20-2024INFLOW (KAF)188154123
27STRM8ST. REGIS-NEAR ST. REGIS02-20-2024DISCHARGE (KAF)20523787
28PDTO3UMATILLA-AT PENDLETON02-20-2024DISCHARGE (KAF)205189108
29HOTI1BRUNEAU-NEAR HOT SPRINGS02-20-2024DISCHARGE (KAF)234145161
30TEAI1TETON-NEAR ST. ANTHONY02-20-2024DISCHARGE (KAF)312269116
31HODO3HOOD-NEAR TUCKER BRIDGE02-20-2024DISCHARGE (KAF)320255126
32CLUW1CLE ELUM-CLE ELUM LAKE02-20-2024INFLOW (KAF)321312103
33CHEI1FALL RIVER-NEAR CHESTER02-20-2024DISCHARGE (KAF)323295109
34CLFW1NACHES-NEAR CLIFFDEL02-20-2024DISCHARGE (KAF)334329102
35UNDW1WHITE SALMON-NEAR UNDERWOOD02-20-2024DISCHARGE (KAF)363339107
36CSDI1NF PAYETTE-CASCADE DAM02-20-2024INFLOW (KAF)36643784
37BONM8BLACKFOOT-NEAR BONNER02-20-2024DISCHARGE (KAF)39461664
38ARAI1SF BOISE-ANDERSON RANCH DAM02-20-2024INFLOW (KAF)439373118
39WSRI1WEISER-NEAR WEISER02-20-2024DISCHARGE (KAF)439417105
40BIGI1BOISE-AT GLENWOOD BRIDGE02-20-2024DISCHARGE (KAF)466208224
41NACW1NACHES-NEAR NACHES02-20-2024DISCHARGE (KAF)486487100
42PARI1BOISE-NEAR PARMA02-20-2024DISCHARGE (KAF)495255194
43PATW1METHOW-NEAR PATEROS02-20-2024DISCHARGE (KAF)53766780
44OWYO3OWYHEE-OWYHEE DAM02-20-2024INFLOW (KAF)559268209
45CHDW1CHELAN-LAKE CHELAN DAM02-20-2024INFLOW (KAF)56173377
46JLKW4SNAKE-JACKSON LAKE AT DAM02-20-2024INFLOW (KAF)563563100
47PARW1YAKIMA-NEAR PARKER02-20-2024DISCHARGE (KAF)58372081
48UMTW1YAKIMA-AT UMTANUM02-20-2024DISCHARGE (KAF)60163495
49PITW1KLICKITAT-NEAR PITT02-20-2024DISCHARGE (KAF)602504119
50ANTI1HENRYS FORK-AT ST. ANTHONY02-20-2024DISCHARGE (KAF)610586104
51BITM8BITTERROOT-NEAR MISSOULA02-20-2024DISCHARGE (KAF)72190580
52MONO3NF JOHN DAY-AT MONUMENT02-20-2024DISCHARGE (KAF)735604122
53REXI1HENRYS FORK-AT REXBURG02-20-2024DISCHARGE (KAF)745682109
54ABOM8CLARK FORK-ABOVE MISSOULA02-20-2024DISCHARGE (KAF)757107870
55PRTI1PRIEST-NEAR PRIEST RIVER02-20-2024DISCHARGE (KAF)816717114
56TONW1OKANOGAN-NEAR TONASKET02-20-2024DISCHARGE (KAF)844121669
57FCFM8NF FLATHEAD-NEAR COLUMBIA FALLS02-20-2024DISCHARGE (KAF)887117675
58EMMI1PAYETTE-NEAR EMMETT02-20-2024DISCHARGE (KAF)900107784
59KIOW1YAKIMA-AT KIONA02-20-2024DISCHARGE (KAF)905105586
60JKSW4SNAKE-NEAR JACKSON02-20-2024DISCHARGE (KAF)917102789
61WGCM8MF FLATHEAD-NEAR WEST GLACIER02-20-2024DISCHARGE (KAF)920112782
62PESW1WENATCHEE-AT PESHASTIN02-20-2024DISCHARGE (KAF)966107390
63LUCI1BOISE-LUCKY PEAK DAM02-20-2024INFLOW (KAF)1093898122
64SERO3JOHN DAY-AT SERVICE CK02-20-2024DISCHARGE (KAF)1117860130
65ALPW4SNAKE-NEAR ALPINE02-20-2024DISCHARGE (KAF)1170132588
66HHWM8SF FLATHEAD-HUNGRY HORSE DAM02-20-2024INFLOW (KAF)1312151786
67TRYO3GRANDE RONDE-TROY02-20-2024DISCHARGE (KAF)13791286107
68BELM8CLARK FORK-BELOW MISSOULA02-20-2024DISCHARGE (KAF)1478202473
69MODO3DESCHUTES-AT MOODY NR BIGGS02-20-2024DISCHARGE (KAF)15381421108
70LAUW1KETTLE-AT LAURIER02-20-2024DISCHARGE (KAF)15391525101
71BFTI1SNAKE-NEAR BLACKFOOT02-20-2024DISCHARGE (KAF)16101069151
72SNAI1SNAKE-AT BLACKFOOT02-20-2024DISCHARGE (KAF)16431075153
73SWAI1SNAKE-BELOW SWAN FALLS02-20-2024DISCHARGE (KAF)19221893102
74SHYI1SNAKE-NEAR SHELLEY02-20-2024DISCHARGE (KAF)19401487130
75PLDI1SF SNAKE-PALISADES DAM02-20-2024INFLOW (KAF)1960198199
76SRGM8CLARK FORK-AT ST REGIS02-20-2024DISCHARGE (KAF)1968269073
77HEII1SNAKE-NEAR HEISE02-20-2024DISCHARGE (KAF)20261791113
78SIFI1SNAKE-AB EAGLE ROCK NR IDAHO FALLS02-20-2024DISCHARGE (KAF)20651581131
79DWRI1NF CLEARWATER-DWORSHAK DAM02-20-2024INFLOW (KAF)2094240987
80SPOW1SPOKANE-AT SPOKANE02-20-2024DISCHARGE (KAF)2196265183
81AFRI1SNAKE-AMERICAN FALLS RESERVOIR02-20-2024INFLOW (KAF)22871714133
82COEI1COEUR D ALENE-COEUR D ALENE LAKE02-20-2024INFLOW (KAF)2297262987
83LLKW1SPOKANE-AT LONGLAKE02-20-2024INFLOW (KAF)2496297984
84CFMM8FLATHEAD-AT COLUMBIA FALLS02-20-2024DISCHARGE (KAF)2601328579
85LYDM8KOOTENAI-LIBBY DAM02-20-2024INFLOW (KAF)2910366379
86KERM8FLATHEAD-SELI’Š KSANKA QLISPE’ DAM02-20-2024INFLOW (KAF)3166409177
87LEOI1KOOTENAI-AT LEONIA02-20-2024DISCHARGE (KAF)3168335894
88ORFI1CLEARWATER-AT OROFINO02-20-2024DISCHARGE (KAF)3555397489
89WHBI1SALMON-AT WHITEBIRD02-20-2024DISCHARGE (KAF)3638445482
90WEII1SNAKE-AT WEISER02-20-2024DISCHARGE (KAF)42964001107
91NOXM8CLARK FORK-NOXON RAPIDS DAM02-20-2024INFLOW (KAF)4708671370
92SPDI1CLEARWATER-AT SPALDING02-20-2024DISCHARGE (KAF)4716583481
93BRNI1SNAKE-BROWNLEE DAM02-20-2024INFLOW (KAF)48724479109
94CABI1CLARK FORK-CABINET GORGE DAM02-20-2024INFLOW (KAF)5212752069
95ALFW1PEND OREILLE-ALBENI FALLS DAM02-20-2024INFLOW (KAF)6773880577
96ANAW1SNAKE-NEAR ANATONE02-20-2024DISCHARGE (KAF)98541148786
97LGDW1SNAKE-LOWER GRANITE DAM02-20-2024INFLOW (KAF)145661782882
98LGSW1SNAKE-LITTLE GOOSE DAM02-20-2024INFLOW (KAF)145661786282
99LMNW1SNAKE-LOWER MONUMENTAL DAM02-20-2024INFLOW (KAF)146881800982
100IHDW1SNAKE-ICE HARBOR DAM02-20-2024INFLOW (KAF)146891801482
101CIBW1COLUMBIA-AT INTL BOUNDARY02-20-2024DISCHARGE (KAF)168382406370
102CHJW1COLUMBIA-CHIEF JOSEPH DAM02-20-2024INFLOW (KAF)199852768672
103GCDW1COLUMBIA-GRAND COULEE DAM02-20-2024INFLOW (KAF)210012770376
104WELW1COLUMBIA-WELLS DAM02-20-2024INFLOW (KAF)213562975872
105RRHW1COLUMBIA-ROCKY REACH DAM02-20-2024INFLOW (KAF)218333048072
106WANW1COLUMBIA-WANAPUM DAM02-20-2024INFLOW (KAF)227833179872
107PRWW1COLUMBIA-PRIEST RAPIDS DAM02-20-2024INFLOW (KAF)227893186372
108MCDW1COLUMBIA-MCNARY DAM02-20-2024INFLOW (KAF)384335105475
109JDAO3COLUMBIA-JOHN DAY DAM02-20-2024INFLOW (KAF)410285307677
110TDAO3COLUMBIA-THE DALLES DAM02-20-2024INFLOW (KAF)415145350078
111BONO3COLUMBIA-BONNEVILLE DAM02-20-2024INFLOW (KAF)428075562477
112BFEI1KOOTENAI-AT BONNERS FERRY02-20-2024STAGE (FT)MMM
113HOPI1PEND OREILLE-LAKE PEND OREILLE NR HOPE02-20-2024LAKE ELEVATION (FT)MMM
114SJMI1ST JOE-AT ST MARIES02-20-2024STAGE (FT)MMM
115MILI1SNAKE-AT MILNER02-20-2024DISCHARGE (KAF)M55M